Location: Prairie Dale
(45.6972°N, 104.5033°W)
Time: 22:20:24
(UTC+00:00)

ESTCUBE 1 - Pass Details

Date: 28 June 2022
Orbit: 645 x 657 km, 97.9° (Epoch: 16 August)

Event Time Altitude Azimuth Distance (km) Brightness Sun altitude
Exits shadow 03:54:25 - 113° (ESE) 2,099 ? -9.0°
Reaches altitude 10° 03:54:36 10° 112° (ESE) 2,044 ? -9.1°
Maximum altitude 03:57:54 21° 64° (ENE) 1,461 ? -9.4°
Drops below altitude 10° 04:01:13 10° 16° (NNE) 2,058 ? -9.8°
Sets 04:03:53 0° 0° (N) 2,975 ? -10.1°
